Chehalis, WA

3:25 AM PDT on April 24, 2017 (GMT -0700)
Chehalis-Centralia

Weather History for KCLS - January, 2013

Change the Weather History Date:

Tuesday, January 8, 2013

  Actual Average (KTDO) Record (KTDO)
Temperature  
Mean Temperature 46 °F -  
Max Temperature 51 °F 43 °F 55 °F (2002)
Min Temperature 42 °F 31 °F 9 °F (1974)
Degree Days  
Heating Degree Days 18    
Moisture  
Dew Point 46 °F    
Average Humidity 94    
Maximum Humidity 100    
Minimum Humidity 87    
Precipitation  
Precipitation 0.28 in - - ()
Sea Level Pressure  
Sea Level Pressure 30.00 in    
Wind  
Wind Speed 7 mph (South)    
Max Wind Speed 23 mph    
Max Gust Speed 32 mph    
Visibility 6 miles    
Events Rain    
Averages and records for this station are not official NWS values.
T = Trace of Precipitation, MM = Missing Value Source: NWS Daily Summary

Daily Weather History Graph

Daily Weather History Graph

Search for Another Location

Airport or City:

Trip Planner

Search our weather history database for the weather conditions in past years. The results will help you decide how hot, cold, wet, or windy it might be!

Date:

Astronomy

Jan. 08, 2013 Rise Set
Actual Time 7:55 AM PST 4:42 PM PST
Civil Twilight 7:20 AM PST 5:17 PM PST
Nautical Twilight 6:42 AM PST 5:55 PM PST
Astronomical Twilight 6:06 AM PST 6:31 PM PST
Moon 4:33 AM PST (1/8) 1:50 PM PST (1/8)
Length of Visible Light 9h 56m
Length of Day
8h 47m
Waning Crescent, 13% of the Moon is Illuminated
Jan 8
Waning Crescent
Jan 11
New
Jan 18
First Quarter
Jan 26
Full
Feb 3
Last Quarter

Hourly Weather History & Observations

Time (PST) Temp. Windchill Dew Point Humidity Pressure Visibility Wind Dir Wind Speed Gust Speed Precip Events Conditions
12:15 AM 44.6 °F - 41.0 °F 87% 30.20 in 10.0 mi Calm Calm - N/A   Overcast
12:35 AM 44.6 °F - 41.0 °F 87% 30.20 in 10.0 mi Calm Calm - N/A   Overcast
12:55 AM 42.8 °F 41.1 °F 41.0 °F 93% 30.20 in 10.0 mi SW 3.5 mph - N/A   Overcast
1:15 AM 42.8 °F - 41.0 °F 93% 30.19 in 7.0 mi Calm Calm - N/A   Overcast
1:35 AM 42.8 °F - 41.0 °F 93% 30.19 in 10.0 mi Calm Calm - N/A   Overcast
1:55 AM 42.8 °F - 41.0 °F 93% 30.19 in 10.0 mi Calm Calm - N/A   Overcast
2:15 AM 42.8 °F - 41.0 °F 93% 30.18 in 10.0 mi Calm Calm - N/A   Overcast
2:35 AM 44.6 °F 43.1 °F 42.8 °F 93% 30.18 in 10.0 mi SW 3.5 mph - N/A   Overcast
2:55 AM 44.6 °F - 42.8 °F 93% 30.18 in 6.0 mi Calm Calm - N/A   Overcast
3:15 AM 44.6 °F - 42.8 °F 93% 30.17 in 7.0 mi Calm Calm - N/A   Mostly Cloudy
3:35 AM 44.6 °F 43.1 °F 42.8 °F 93% 30.17 in 8.0 mi WSW 3.5 mph - N/A   Mostly Cloudy
3:55 AM 44.6 °F 42.2 °F 42.8 °F 93% 30.16 in 10.0 mi SW 4.6 mph - N/A   Overcast
4:15 AM 44.6 °F - 42.8 °F 93% 30.15 in 9.0 mi Calm Calm - N/A   Overcast
4:35 AM 44.6 °F - 42.8 °F 93% 30.13 in 10.0 mi Calm Calm - N/A   Overcast
4:55 AM 44.6 °F 43.1 °F 42.8 °F 93% 30.12 in 9.0 mi SW 3.5 mph - N/A   Overcast
5:35 AM 44.6 °F 42.2 °F 42.8 °F 93% 30.10 in 3.0 mi SSE 4.6 mph - 0.03 in Rain Light Rain
5:55 AM 44.6 °F 42.2 °F 42.8 °F 93% 30.09 in 5.0 mi South 4.6 mph - 0.03 in Rain Light Rain
6:15 AM 44.6 °F 43.1 °F 42.8 °F 93% 30.08 in 3.0 mi SSE 3.5 mph - 0.01 in   Overcast
6:35 AM 44.6 °F 41.4 °F 42.8 °F 93% 30.06 in 3.0 mi SSE 5.8 mph - 0.03 in Rain Light Rain
6:55 AM 44.6 °F 42.2 °F 42.8 °F 93% 30.05 in 3.0 mi South 4.6 mph - 0.04 in Rain Light Rain
7:15 AM 44.6 °F 42.2 °F 42.8 °F 93% 30.05 in 3.0 mi South 4.6 mph - 0.02 in   Overcast
7:35 AM 44.6 °F 42.2 °F 42.8 °F 93% 30.05 in 4.0 mi South 4.6 mph - 0.03 in   Overcast
7:55 AM 44.6 °F 40.2 °F 41.0 °F 87% 30.04 in 5.0 mi South 8.1 mph - 0.04 in Rain Light Rain
8:15 AM 44.6 °F 41.4 °F 41.0 °F 87% 30.04 in 5.0 mi SSW 5.8 mph - N/A   Overcast
8:35 AM 44.6 °F 39.2 °F 42.8 °F 93% 30.03 in 7.0 mi South 10.4 mph - 0.01 in   Overcast
8:55 AM 44.6 °F 39.2 °F 42.8 °F 93% 30.03 in 5.0 mi South 10.4 mph - 0.01 in   Overcast
9:15 AM 44.6 °F 39.7 °F 44.6 °F 100% 30.03 in 5.0 mi South 9.2 mph - N/A   Overcast
9:35 AM 46.4 °F 41.9 °F 44.6 °F 93% 30.04 in 3.0 mi South 9.2 mph - 0.01 in   Mostly Cloudy
9:55 AM 46.4 °F 42.4 °F 44.6 °F 93% 30.03 in 3.0 mi SSW 8.1 mph - 0.04 in Rain Light Rain
10:15 AM 46.4 °F 41.1 °F 46.4 °F 100% 30.02 in 3.0 mi South 11.5 mph 17.3 mph 0.01 in Rain Light Rain
10:35 AM 48.2 °F - 46.4 °F 93% 30.01 in 9.0 mi South 12.7 mph 18.4 mph 0.01 in   Overcast
11:15 AM 48.2 °F - 46.4 °F 93% 30.00 in 10.0 mi SSW 11.5 mph 17.3 mph N/A   Overcast
11:35 AM 48.2 °F - 46.4 °F 93% 29.99 in 4.0 mi South 15.0 mph 21.9 mph N/A   Overcast
11:55 AM 50.0 °F - 48.2 °F 94% 29.99 in 6.0 mi South 12.7 mph 21.9 mph N/A   Overcast
12:15 PM 50.0 °F - 48.2 °F 94% 29.98 in 5.0 mi South 15.0 mph 23.0 mph N/A   Overcast
12:35 PM 50.0 °F - 48.2 °F 94% 29.98 in 3.0 mi South 15.0 mph 20.7 mph 0.01 in Rain Light Rain
12:55 PM 50.0 °F - 48.2 °F 94% 29.97 in 5.0 mi South 13.8 mph 21.9 mph 0.01 in   Overcast
1:15 PM 50.0 °F - 48.2 °F 94% 29.97 in 2.0 mi South 11.5 mph 18.4 mph 0.01 in   Overcast
1:35 PM 50.0 °F - 48.2 °F 94% 29.97 in 2.5 mi South 13.8 mph 20.7 mph 0.01 in   Mostly Cloudy
1:55 PM 50.0 °F - 48.2 °F 94% 29.95 in 8.0 mi South 13.8 mph 20.7 mph 0.01 in   Overcast
2:15 PM 50.0 °F - 48.2 °F 94% 29.95 in 5.0 mi South 10.4 mph 20.7 mph N/A   Overcast
2:35 PM 50.0 °F - 48.2 °F 94% 29.95 in 4.0 mi South 12.7 mph 21.9 mph N/A   Overcast
2:55 PM 50.0 °F - 48.2 °F 94% 29.95 in 3.0 mi South 9.2 mph 18.4 mph 0.02 in Rain Light Rain
3:15 PM 50.0 °F - 48.2 °F 94% 29.95 in 6.0 mi SSW 9.2 mph - N/A   Overcast
3:35 PM 50.0 °F - 50.0 °F 100% 29.94 in 5.0 mi South 15.0 mph 18.4 mph 0.01 in Rain Light Rain
3:55 PM 50.0 °F - 50.0 °F 100% 29.94 in 5.0 mi South 13.8 mph 18.4 mph 0.02 in   Overcast
4:35 PM 50.0 °F - 50.0 °F 100% 29.93 in 3.0 mi South 13.8 mph 18.4 mph N/A   Overcast
4:55 PM 50.0 °F - 48.2 °F 94% 29.92 in 10.0 mi South 13.8 mph 20.7 mph N/A   Overcast
5:15 PM 51.8 °F - 48.2 °F 88% 29.91 in 10.0 mi South 13.8 mph 21.9 mph N/A   Overcast
5:55 PM 50.0 °F - 48.2 °F 94% 29.91 in 3.0 mi South 13.8 mph 20.7 mph 0.01 in Rain Light Rain
6:15 PM 50.0 °F - 50.0 °F 100% 29.90 in 3.0 mi South 13.8 mph 21.9 mph N/A   Overcast
6:35 PM 50.0 °F - 50.0 °F 100% 29.89 in 5.0 mi South 15.0 mph 18.4 mph N/A   Overcast
6:55 PM 50.0 °F - 48.2 °F 94% 29.89 in 5.0 mi South 13.8 mph 21.9 mph N/A   Overcast
7:15 PM 50.0 °F - 48.2 °F 94% 29.88 in 7.0 mi South 15.0 mph - N/A   Overcast
7:35 PM 50.0 °F - 48.2 °F 94% 29.87 in 9.0 mi South 15.0 mph 19.6 mph N/A   Overcast
7:55 PM 50.0 °F - 48.2 °F 94% 29.87 in 7.0 mi South 16.1 mph 25.3 mph N/A   Overcast
8:15 PM 50.0 °F - 48.2 °F 94% 29.87 in 10.0 mi South 15.0 mph 20.7 mph N/A   Overcast
8:35 PM 50.0 °F - 48.2 °F 94% 29.86 in 5.0 mi South 15.0 mph 21.9 mph 0.01 in   Overcast
8:55 PM 50.0 °F - 48.2 °F 94% 29.85 in 5.0 mi South 16.1 mph 25.3 mph 0.01 in   Overcast
9:15 PM 50.0 °F - 48.2 °F 94% 29.84 in 8.0 mi South 17.3 mph 25.3 mph N/A   Overcast
9:35 PM 50.0 °F - 48.2 °F 94% 29.84 in 10.0 mi South 15.0 mph 21.9 mph N/A   Overcast
10:15 PM 50.0 °F - 48.2 °F 94% 29.83 in 3.0 mi SSW 15.0 mph 25.3 mph N/A   Overcast
10:35 PM 50.0 °F - 48.2 °F 94% 29.81 in 2.5 mi South 23.0 mph 31.1 mph N/A Rain Light Rain
10:55 PM 50.0 °F - 48.2 °F 94% 29.81 in 2.5 mi South 18.4 mph 32.2 mph 0.01 in Rain Light Rain
11:15 PM 50.0 °F - 48.2 °F 94% 29.81 in 3.0 mi South 18.4 mph 27.6 mph N/A Rain Light Rain
11:35 PM 50.0 °F - 48.2 °F 94% 29.81 in 3.0 mi SSW 17.3 mph 25.3 mph N/A Rain Light Rain
11:55 PM 50.0 °F - 48.2 °F 94% 29.81 in 3.0 mi SSW 13.8 mph 20.7 mph 0.02 in   Overcast